C/2020 R7 ( ATLAS )

Japanese version
Home page
Updated on October 9, 2020

---------------------------------------------------------------------

* Profile

Discovery Date September 15, 2020
Magnitude 19.0 mag
Discoverer Asteroid Terrestrial-Impact Last Alert System (ATLAS) search program

* Orbital Elements

Epoch 2022 Sept. 18.0 TT = JDT 2459840.5
T 2022 Sept. 4.81448 TT                                 Rudenko
q   2.9581471            (2000.0)            P               Q
z  -0.0095259      Peri.  347.01983     +0.06869141     -0.41686993
 +/-0.0067227      Node   268.47011     -0.81503116     -0.54738249
e   1.0281790      Incl.  114.94812     -0.57533095     +0.72566651
From 51 observations 2020 Sept. 15-23, mean residual 0".3.

* Finding Charts

* Magnitudes Graph

        m1 = 5.5 + 5 log d + 10.0 log r

---------------------------------------------------------------------

The orbital elements are published on M.P.E.C. 2020-S188.
The charts are made with StellaNavigator Ver.10 (AstroArts).
The magnitudes graphs are made with Comet for Windows.

---------------------------------------------------------------------

Copyright(C) Seiichi Yoshida (comet@aerith.net). All rights reserved.